Flight Track Log - Related Links

Times and Time Zones

All times are in EDT time to prevent confusion due to time zone crossing. See the SWA1294 flight status page for this flight to view local times or setup timezone preferences in your user account.

Time Position Orientation Groundspeed Altitude Reporting Facility
EDT Latitude Longitude Course Direction KTS MPH feet Rate Location/Type
Fri 01:43:58 PM 40.5361 -80.3644 308° West 222 255 4,300  Level Cleveland Center
Fri 01:44:58 PM 40.5944 -80.4108 329° Northwest 222 255 7,200 2,500 Climbing Cleveland Center
Fri 01:45:58 PM 40.6550 -80.4681 324° Northwest 253 291 9,300 1,850 Climbing Cleveland Center
Fri 01:46:58 PM 40.7031 -80.5475 309° West 276 318 10,900 2,100 Climbing Cleveland Center
Fri 01:47:58 PM 40.7217 -80.6681 282° West 308 354 13,500 2,550 Climbing Cleveland Center
Fri 01:48:00 PM 40.6273 -80.9029 285° West  Level FlightAware Approximate
Fri 01:48:58 PM 40.7467 -80.7886 285° West 330 380 16,000  Level Cleveland Center
Fri 01:49:58 PM 40.7692 -80.9231 283° West 358 412 18,100 2,150 Climbing Cleveland Center
Fri 01:50:58 PM 40.7917 -81.0739 281° West 371 427 20,300 2,100 Climbing Cleveland Center
Fri 01:51:58 PM 40.8158 -81.2086 283° West 387 445 22,300 1,800 Climbing Cleveland Center
Fri 01:52:58 PM 40.8381 -81.3517 282° West 396 456 23,900 1,350 Climbing Cleveland Center
Fri 01:53:58 PM 40.8619 -81.4972 282° West 407 468 25,000 1,850 Climbing Cleveland Center
Fri 01:54:58 PM 40.8878 -81.6433 283° West 412 474 27,600 2,400 Climbing Cleveland Center
Fri 01:55:58 PM 40.9092 -81.7808 282° West 394 453 29,800 1,600 Climbing Cleveland Center
Fri 01:56:58 PM 40.9308 -81.9022 283° West 384 442 30,800 1,100 Climbing Cleveland Center
Fri 01:57:58 PM 40.9522 -82.0375 282° West 384 442 32,000 600 Climbing Cleveland Center
Fri 01:58:58 PM 40.9733 -82.1728 282° West 379 436 32,000  Level Cleveland Center
Fri 01:59:58 PM 40.9942 -82.3081 282° West 373 429 32,000  Level Cleveland Center
Fri 02:00:58 PM 41.0189 -82.4572 282° West 373 429 32,000  Level Cleveland Center
Fri 02:01:58 PM 41.0397 -82.5900 282° West 373 429 32,000  Level Cleveland Center
Fri 02:02:58 PM 41.0600 -82.7311 281° West 373 429 32,000  Level Cleveland Center
Fri 02:03:58 PM 41.0825 -82.8669 282° West 378 435 32,000  Level Cleveland Center
Fri 02:04:58 PM 41.1025 -83.0025 281° West 378 435 32,000  Level Cleveland Center
Fri 02:05:58 PM 41.1225 -83.1411 281° West 378 435 32,000  Level Cleveland Center
Fri 02:06:58 PM 41.1406 -83.2603 281° West 378 435 32,000  Level Cleveland Center
Fri 02:07:58 PM 41.1603 -83.3992 281° West 378 435 32,000  Level Cleveland Center
Fri 02:08:58 PM 41.1839 -83.5381 283° West 378 435 32,000  Level Cleveland Center
Fri 02:09:58 PM 41.2031 -83.6742 281° West 378 435 32,000 -100 Level Cleveland Center
Fri 02:10:58 PM 41.2242 -83.8133 281° West 378 435 31,800 -700 Descending Cleveland Center
Fri 02:11:58 PM 41.2492 -83.9636 283° West 378 435 30,600 -900 Descending Cleveland Center
Fri 02:12:58 PM 41.2681 -84.0975 281° West 378 435 30,000 -387 Descending Cleveland Center
Fri 02:13:31 PM 41.2750 -84.1539 279° West 376 433 30,000  Level Chicago Center
Fri 02:14:33 PM 41.2986 -84.3200 281° West 381 438 30,000  Level Chicago Center
Fri 02:15:35 PM 41.3181 -84.4594 281° West 383 441 30,000  Level Chicago Center
Fri 02:16:37 PM 41.3378 -84.6003 281° West 386 444 30,000  Level Chicago Center
Fri 02:17:39 PM 41.3569 -84.7411 280° West 387 445 30,000 -97 Level Chicago Center
Fri 02:18:41 PM 41.3769 -84.8839 281° West 391 450 29,800 -581 Descending Chicago Center
Fri 02:19:43 PM 41.3958 -85.0272 280° West 392 451 28,800 -968 Descending Chicago Center
Fri 02:20:45 PM 41.4144 -85.1703 280° West 392 451 27,800 -1,248 Descending Chicago Center
Fri 02:21:48 PM 41.4356 -85.3361 280° West 380 437 26,200 -1,776 Descending Chicago Center
Fri 02:22:50 PM 41.4536 -85.4686 280° West 364 419 24,100 -1,500 Descending Chicago Center
Fri 02:23:52 PM 41.4703 -85.5989 280° West 353 406 23,100 -1,258 Descending Chicago Center
Fri 02:24:54 PM 41.4867 -85.7292 280° West 353 406 21,500 -1,742 Descending Chicago Center
Fri 02:25:56 PM 41.5033 -85.8558 280° West 347 399 19,500 -1,935 Descending Chicago Center
Fri 02:26:58 PM 41.5175 -85.9764 279° West 333 383 17,500 -1,887 Descending Chicago Center
Fri 02:28:00 PM 41.5258 -86.0914 276° West 317 365 15,600 -1,935 Descending Chicago Center
Fri 02:29:02 PM 41.5231 -86.2264 268° West 304 350 13,500 -1,887 Descending Chicago Center
Fri 02:30:04 PM 41.5239 -86.3342 271° West 294 338 11,700 -1,403 Descending Chicago Center
Fri 02:31:06 PM 41.5222 -86.4408 269° West 290 334 10,600 -871 Descending Chicago Center
Fri 02:32:08 PM 41.5214 -86.5544 269° West 303 349 9,900 -339 Descending Chicago Center
Fri 02:33:10 PM 41.5203 -86.6564 269° West 271 312 9,900  Level Chicago Center
Fri 02:34:13 PM 41.5200 -86.7647 270° West 259 298 9,900  Level Chicago Center
Fri 02:35:15 PM 41.5192 -86.8583 269° West 253 291 9,900 -484 Level Chicago Center
Fri 02:36:17 PM 41.5181 -86.9506 269° West 250 288 8,900 -1,113 Descending Chicago Center
Fri 02:37:19 PM 41.5167 -87.0444 269° West 251 289 7,600 -1,403 Descending Chicago Center
Fri 02:38:21 PM 41.5161 -87.1583 270° West 255 293 6,000 -774 Descending Chicago Center
Fri 02:39:23 PM 41.5158 -87.2517 270° West 254 292 6,000  Level Chicago Center
Fri 02:40:20 PM 41.5167 -87.3500 271° West 253 291 6,000  Level Chicago TRACON
Fri 02:41:20 PM 41.5167 -87.4333 270° West 251 289 6,000 -300 Level Chicago TRACON
Fri 02:42:20 PM 41.5167 -87.5333 270° West 244 281 5,400 -750 Descending Chicago TRACON
Fri 02:43:20 PM 41.5167 -87.6167 270° West 255 293 4,500 -700 Descending Chicago TRACON
Fri 02:44:20 PM 41.5333 -87.7167 283° West 268 308 4,000 -450 Descending Chicago TRACON
Fri 02:45:20 PM 41.5667 -87.7833 304° West 220 253 3,600 -395 Descending Chicago TRACON
Fri 02:45:36 PM 41.5669 -87.8003 271° West 231 266 3,500 -846 Descending Chicago Center
Fri 02:46:38 PM 41.5986 -87.8642 304° West 217 250 2,500 -484 Descending Chicago Center
Fri 02:47:40 PM 41.6322 -87.9036 319° Northwest 200 230 2,500  Level Chicago Center
Fri 02:48:42 PM 41.6836 -87.8797 19° North 174 200 2,500  Level Chicago Center
Fri 02:49:21 PM 41.7000 -87.8500 54° Northeast 168 193 2,500 -424 Level Chicago TRACON
Fri 02:50:21 PM 41.7333 -87.8167 37° Northeast 151 174 1,800 -750 Descending Chicago TRACON
Fri 02:51:21 PM 41.7667 -87.7833 37° Northeast 135 155 1,000 -800 Descending Chicago TRACON

Login

Don't have an account? Register now (free) for customized features, flight alerts, and more!